Directory Listing
Index of /dewikisource/20260501/

Index of /dewikisource/20260501/


../
dewikisource-20260501-all-titles-in-ns0.gz         01-May-2026 23:24      2M
dewikisource-20260501-all-titles.gz                01-May-2026 23:24      3M
dewikisource-20260501-babel.sql.gz                 01-May-2026 21:39    2356
dewikisource-20260501-category.sql.gz              01-May-2026 21:38    116K
dewikisource-20260501-categorylinks.sql.gz         01-May-2026 21:38     23M
dewikisource-20260501-categorylinks.sql.gz.inprog  01-May-2026 21:38     18M
dewikisource-20260501-change_tag.sql.gz            01-May-2026 21:39      5M
dewikisource-20260501-change_tag_def.sql.gz        01-May-2026 21:39    1533
dewikisource-20260501-externallinks.sql.gz         01-May-2026 21:38     16M
dewikisource-20260501-geo_tags.sql.gz              01-May-2026 21:38     885
dewikisource-20260501-image.sql.gz                 01-May-2026 21:38    353K
dewikisource-20260501-imagelinks.sql.gz            01-May-2026 21:38      4M
dewikisource-20260501-iwlinks.sql.gz               01-May-2026 21:38      5M
dewikisource-20260501-langlinks.sql.gz             01-May-2026 21:38    365K
dewikisource-20260501-linktarget.sql.gz            01-May-2026 21:38      8M
dewikisource-20260501-md5sums.json                 02-May-2026 03:18    3144
dewikisource-20260501-md5sums.txt                  02-May-2026 03:18    2934
dewikisource-20260501-page.sql.gz                  01-May-2026 21:38     19M
dewikisource-20260501-page_props.sql.gz            01-May-2026 21:38      5M
dewikisource-20260501-page_restrictions.sql.gz     01-May-2026 21:38      4M
dewikisource-20260501-pagelinks.sql.gz             01-May-2026 21:38     17M
dewikisource-20260501-pages-articles-multistrea..> 01-May-2026 22:57      5M
dewikisource-20260501-pages-articles-multistrea..> 01-May-2026 22:52    376K
dewikisource-20260501-pages-articles-multistrea..> 01-May-2026 22:57    567M
dewikisource-20260501-pages-articles-multistrea..> 01-May-2026 22:52     56M
dewikisource-20260501-pages-articles.xml.bz2       01-May-2026 21:47    538M
dewikisource-20260501-pages-articles.xml.bz2.in..> 01-May-2026 21:46    468M
dewikisource-20260501-pages-logging.xml.gz         01-May-2026 23:25     26M
dewikisource-20260501-pages-meta-current.xml.bz2   01-May-2026 23:23    571M
dewikisource-20260501-pages-meta-history.xml.7z    02-May-2026 03:17      2G
dewikisource-20260501-pages-meta-history.xml.bz2   02-May-2026 02:47      7G
dewikisource-20260501-protected_titles.sql.gz      01-May-2026 21:38    1533
dewikisource-20260501-redirect.sql.gz              01-May-2026 21:38    157K
dewikisource-20260501-runsettings.txt              01-May-2026 20:37      28
dewikisource-20260501-sha1sums.json                02-May-2026 03:18    3449
dewikisource-20260501-sha1sums.txt                 02-May-2026 03:18    3238
dewikisource-20260501-site_stats.sql.gz            01-May-2026 21:37     849
dewikisource-20260501-siteinfo-namespaces.json.gz  01-May-2026 23:24    6690
dewikisource-20260501-siteinfo2-namespacesv2.js..> 01-May-2026 23:24    6930
dewikisource-20260501-sites.sql.gz                 01-May-2026 21:39     23K
dewikisource-20260501-stub-articles.xml.gz         01-May-2026 20:52     53M
dewikisource-20260501-stub-meta-current.xml.gz     01-May-2026 20:52     56M
dewikisource-20260501-stub-meta-history.xml.gz     01-May-2026 20:52    322M
dewikisource-20260501-templatelinks.sql.gz         01-May-2026 21:38     19M
dewikisource-20260501-user_former_groups.sql.gz    01-May-2026 21:38     907
dewikisource-20260501-user_groups.sql.gz           01-May-2026 21:38    1093
dewikisource-20260501-wbc_entity_usage.sql.gz      01-May-2026 21:39     11M
dumpruninfo.json                                   02-May-2026 03:18    2562
dumpruninfo.txt                                    02-May-2026 03:18    2202
dumpspecialfiles.json                              02-May-2026 03:18     133
dumpstatus.json                                    02-May-2026 03:18     12K
md5sums-dewikisource-20260501-all-titles-in-ns0..> 01-May-2026 23:24      77
md5sums-dewikisource-20260501-all-titles.gz.txt    01-May-2026 23:24      70
md5sums-dewikisource-20260501-babel.sql.gz.txt     01-May-2026 21:39      69
md5sums-dewikisource-20260501-category.sql.gz.txt  01-May-2026 21:38      72
md5sums-dewikisource-20260501-categorylinks.sql..> 01-May-2026 21:38      77
md5sums-dewikisource-20260501-change_tag.sql.gz..> 01-May-2026 21:39      74
md5sums-dewikisource-20260501-change_tag_def.sq..> 01-May-2026 21:39      78
md5sums-dewikisource-20260501-externallinks.sql..> 01-May-2026 21:38      77
md5sums-dewikisource-20260501-geo_tags.sql.gz.txt  01-May-2026 21:39      72
md5sums-dewikisource-20260501-image.sql.gz.txt     01-May-2026 21:38      69
md5sums-dewikisource-20260501-imagelinks.sql.gz..> 01-May-2026 21:38      74
md5sums-dewikisource-20260501-iwlinks.sql.gz.txt   01-May-2026 21:38      71
md5sums-dewikisource-20260501-langlinks.sql.gz.txt 01-May-2026 21:38      73
md5sums-dewikisource-20260501-linktarget.sql.gz..> 01-May-2026 21:38      74
md5sums-dewikisource-20260501-page.sql.gz.txt      01-May-2026 21:38      68
md5sums-dewikisource-20260501-page_props.sql.gz..> 01-May-2026 21:38      74
md5sums-dewikisource-20260501-page_restrictions..> 01-May-2026 21:38      81
md5sums-dewikisource-20260501-pagelinks.sql.gz.txt 01-May-2026 21:38      73
md5sums-dewikisource-20260501-pages-articles-mu..> 01-May-2026 22:57      97
md5sums-dewikisource-20260501-pages-articles-mu..> 01-May-2026 22:57      91
md5sums-dewikisource-20260501-pages-articles.xm..> 01-May-2026 21:47      79
md5sums-dewikisource-20260501-pages-logging.xml..> 01-May-2026 23:25      77
md5sums-dewikisource-20260501-pages-meta-curren..> 01-May-2026 23:23      83
md5sums-dewikisource-20260501-pages-meta-histor..> 02-May-2026 03:18      82
md5sums-dewikisource-20260501-pages-meta-histor..> 02-May-2026 02:48      83
md5sums-dewikisource-20260501-protected_titles...> 01-May-2026 21:38      80
md5sums-dewikisource-20260501-redirect.sql.gz.txt  01-May-2026 21:38      72
md5sums-dewikisource-20260501-site_stats.sql.gz..> 01-May-2026 21:38      74
md5sums-dewikisource-20260501-siteinfo-namespac..> 01-May-2026 23:24      84
md5sums-dewikisource-20260501-siteinfo2-namespa..> 01-May-2026 23:24      87
md5sums-dewikisource-20260501-sites.sql.gz.txt     01-May-2026 21:39      69
md5sums-dewikisource-20260501-stub-articles.xml..> 01-May-2026 20:52      77
md5sums-dewikisource-20260501-stub-meta-current..> 01-May-2026 20:52      81
md5sums-dewikisource-20260501-stub-meta-history..> 01-May-2026 20:52      81
md5sums-dewikisource-20260501-templatelinks.sql..> 01-May-2026 21:38      77
md5sums-dewikisource-20260501-user_former_group..> 01-May-2026 21:38      82
md5sums-dewikisource-20260501-user_groups.sql.g..> 01-May-2026 21:38      75
md5sums-dewikisource-20260501-wbc_entity_usage...> 01-May-2026 21:39      80
report.json                                        02-May-2026 03:18    6488
sha1sums-dewikisource-20260501-all-titles-in-ns..> 01-May-2026 23:24      85
sha1sums-dewikisource-20260501-all-titles.gz.txt   01-May-2026 23:24      78
sha1sums-dewikisource-20260501-babel.sql.gz.txt    01-May-2026 21:39      77
sha1sums-dewikisource-20260501-category.sql.gz.txt 01-May-2026 21:38      80
sha1sums-dewikisource-20260501-categorylinks.sq..> 01-May-2026 21:38      85
sha1sums-dewikisource-20260501-change_tag.sql.g..> 01-May-2026 21:39      82
sha1sums-dewikisource-20260501-change_tag_def.s..> 01-May-2026 21:39      86
sha1sums-dewikisource-20260501-externallinks.sq..> 01-May-2026 21:38      85
sha1sums-dewikisource-20260501-geo_tags.sql.gz.txt 01-May-2026 21:39      80
sha1sums-dewikisource-20260501-image.sql.gz.txt    01-May-2026 21:38      77
sha1sums-dewikisource-20260501-imagelinks.sql.g..> 01-May-2026 21:38      82
sha1sums-dewikisource-20260501-iwlinks.sql.gz.txt  01-May-2026 21:38      79
sha1sums-dewikisource-20260501-langlinks.sql.gz..> 01-May-2026 21:38      81
sha1sums-dewikisource-20260501-linktarget.sql.g..> 01-May-2026 21:38      82
sha1sums-dewikisource-20260501-page.sql.gz.txt     01-May-2026 21:38      76
sha1sums-dewikisource-20260501-page_props.sql.g..> 01-May-2026 21:38      82
sha1sums-dewikisource-20260501-page_restriction..> 01-May-2026 21:38      89
sha1sums-dewikisource-20260501-pagelinks.sql.gz..> 01-May-2026 21:38      81
sha1sums-dewikisource-20260501-pages-articles-m..> 01-May-2026 22:57     105
sha1sums-dewikisource-20260501-pages-articles-m..> 01-May-2026 22:57      99
sha1sums-dewikisource-20260501-pages-articles.x..> 01-May-2026 21:47      87
sha1sums-dewikisource-20260501-pages-logging.xm..> 01-May-2026 23:25      85
sha1sums-dewikisource-20260501-pages-meta-curre..> 01-May-2026 23:23      91
sha1sums-dewikisource-20260501-pages-meta-histo..> 02-May-2026 03:18      90
sha1sums-dewikisource-20260501-pages-meta-histo..> 02-May-2026 02:48      91
sha1sums-dewikisource-20260501-protected_titles..> 01-May-2026 21:38      88
sha1sums-dewikisource-20260501-redirect.sql.gz.txt 01-May-2026 21:38      80
sha1sums-dewikisource-20260501-site_stats.sql.g..> 01-May-2026 21:38      82
sha1sums-dewikisource-20260501-siteinfo-namespa..> 01-May-2026 23:24      92
sha1sums-dewikisource-20260501-siteinfo2-namesp..> 01-May-2026 23:24      95
sha1sums-dewikisource-20260501-sites.sql.gz.txt    01-May-2026 21:39      77
sha1sums-dewikisource-20260501-stub-articles.xm..> 01-May-2026 20:52      85
sha1sums-dewikisource-20260501-stub-meta-curren..> 01-May-2026 20:52      89
sha1sums-dewikisource-20260501-stub-meta-histor..> 01-May-2026 20:52      89
sha1sums-dewikisource-20260501-templatelinks.sq..> 01-May-2026 21:38      85
sha1sums-dewikisource-20260501-user_former_grou..> 01-May-2026 21:38      90
sha1sums-dewikisource-20260501-user_groups.sql...> 01-May-2026 21:38      83
sha1sums-dewikisource-20260501-wbc_entity_usage..> 01-May-2026 21:39      88
status.html                                        02-May-2026 03:18     119
tableinfo.json                                     01-May-2026 08:30    1569